Weather History for Montpelier, VT

Change the Weather History Date:

Wednesday, January 22, 2014

  Actual Average Record
Temperature  
Mean Temperature -7 °F 16 °F  
Max Temperature 0 °F 26 °F 50 °F (1957)
Min Temperature -15 °F 7 °F -27 °F (1984)
Degree Days  
Heating Degree Days 72 49  
Month to date heating degree days 1047 1066  
Since 1 July heating degree days 4305 4214  
Moisture  
Dew Point -15 °F    
Average Humidity 73    
Maximum Humidity 87    
Minimum Humidity 58    
Precipitation  
Precipitation 0.00 in 0.09 in 1.13 in (1958)
Month to date precipitation 1.80 1.67  
Year to date precipitation 1.80 1.67  
Sea Level Pressure  
Sea Level Pressure 30.00 in    
Wind  
Wind Speed 5 mph (NW)    
Max Wind Speed 14 mph    
Max Gust Speed 19 mph    
Visibility 10 miles    
Events      
T = Trace of Precipitation, MM = Missing Value Source: NWS Daily Summary

Daily Weather History Graph

Daily Weather History Graph

Search for Another Location

Airport:

Trip Planner

Search our weather history database for the weather conditions in past years. The results will help you decide how hot, cold, wet, or windy it might be!

Date:

Astronomy

Jan. 22, 2014 Rise Set
Actual Time 7:17 AM EST 4:46 PM EST
Civil Twilight 6:46 AM EST 5:18 PM EST
Nautical Twilight 6:10 AM EST 5:53 PM EST
Astronomical Twilight 5:36 AM EST 6:27 PM EST
Moon 11:32 PM EST (1/22) 10:02 AM EST (1/22)
Length of Visible Light 10h 31m
Length of Day
9h 28m
Waning Gibbous, 65% of the Moon is Illuminated
Jan 22
Waning Gibbous
Jan 24
Last Quarter
Jan 30
New
Feb 6
First Quarter
Feb 14
Full

Hourly Weather History & Observations

Time (EST) Temp. Windchill Dew Point Humidity Pressure Visibility Wind Dir Wind Speed Gust Speed Precip Events Conditions
12:51 AM -11.0 °F -24.6 °F -15.0 °F 83% 30.08 in 10.0 mi NNW 5.8 mph - N/A   Clear
1:51 AM -11.9 °F -25.7 °F -16.1 °F 82% 30.07 in 10.0 mi NNW 5.8 mph - N/A   Clear
2:51 AM -13.0 °F - -17.0 °F 82% 30.06 in 10.0 mi Calm Calm - N/A   Clear
3:51 AM -13.0 °F - -18.0 °F 78% 30.04 in 10.0 mi Calm Calm - N/A   Clear
4:51 AM -14.1 °F - -18.0 °F 82% 30.04 in 10.0 mi Calm Calm - N/A   Clear
5:51 AM -14.1 °F -23.9 °F -18.9 °F 79% 30.03 in 10.0 mi NW 3.5 mph - N/A   Clear
6:51 AM -15.0 °F -27.4 °F -18.9 °F 82% 30.04 in 10.0 mi NW 4.6 mph - N/A   Clear
7:51 AM -15.0 °F -25.0 °F -18.9 °F 82% 30.04 in 9.0 mi NW 3.5 mph - N/A   Clear
8:51 AM -11.0 °F -20.4 °F -16.1 °F 78% 30.03 in 10.0 mi NNW 3.5 mph - N/A   Clear
9:51 AM -9.9 °F - -16.1 °F 74% 30.02 in 10.0 mi Calm Calm - N/A   Clear
10:51 AM -6.0 °F -21.5 °F -15.0 °F 65% 29.98 in 10.0 mi NNW 8.1 mph - N/A   Clear
11:51 AM -4.0 °F -22.1 °F -14.1 °F 62% 29.93 in 10.0 mi NW 11.5 mph - N/A   Clear
12:51 PM -2.0 °F -19.6 °F -13.0 °F 60% 29.89 in 10.0 mi NW 11.5 mph - N/A   Clear
1:51 PM -0.9 °F -15.3 °F -11.9 °F 60% 29.88 in 10.0 mi NW 8.1 mph - N/A   Clear
2:51 PM -0.9 °F -16.4 °F -11.9 °F 60% 29.91 in 10.0 mi NW 9.2 mph - N/A   Clear
3:51 PM -0.9 °F -15.3 °F -11.9 °F 60% 29.93 in 10.0 mi NW 8.1 mph - N/A   Clear
4:51 PM -4.0 °F -17.8 °F -14.1 °F 62% 29.96 in 10.0 mi NNW 6.9 mph - N/A   Clear
5:51 PM -6.0 °F -21.5 °F -14.1 °F 68% 29.98 in 10.0 mi NW 8.1 mph - N/A   Clear
6:51 PM -7.1 °F -19.9 °F -15.0 °F 68% 30.00 in 10.0 mi NW 5.8 mph - N/A   Clear
7:51 PM -7.1 °F - -15.0 °F 68% 30.01 in 10.0 mi Calm Calm - N/A   Clear
8:51 PM -9.9 °F -21.5 °F -15.0 °F 78% 30.02 in 10.0 mi South 4.6 mph - N/A   Clear
9:51 PM -9.9 °F - -15.0 °F 78% 30.03 in 10.0 mi Calm Calm - N/A   Clear
10:51 PM -11.0 °F - -15.0 °F 83% 30.02 in 10.0 mi Calm Calm - N/A   Clear
11:51 PM -11.0 °F - -16.1 °F 78% 30.02 in 10.0 mi Calm Calm - N/A   Clear